RH
20 25 28 33 33 31 27 18 10 10 9 8 7 8 9 25 38 52 41 38 39 16 22 37 48 52 53 56 57 54 45 51 51 37 19 26 27 29 24 24 34 42 44 37 25 26 26 41 56
26 31 32 31 33 36 29 13 11 10 8 8 8 8 16 34 35 37 34 38 35 12 22 37 47 49 52 55 58 59 52 50 54 40 20 27 28 31 26 28 39 43 47 37 24 26 38 60 65
27 33 32 34 33 34 25 13 8 6 6 8 10 9 18 37 36 38 34 40 32 12 25 35 43 47 51 54 60 62 59 51 56 42 22 27 30 30 27 30 39 49 50 37 28 27 42 61 65
40 37 28 33 34 25 18 15 9 9 6 8 9 11 30 33 38 36 40 40 35 14 28 37 46 44 55 54 60 64 63 54 58 44 23 23 26 27 28 31 40 52 53 42 38 30 44 59 62
36 35 40 37 30 21 16 12 8 10 9 8 8 12 33 38 39 37 38 40 40 16 30 38 48 48 54 57 58 63 64 56 59 46 23 21 22 27 28 29 44 54 56 49 44 43 52 59 60
34 28 38 38 28 19 14 10 10 10 10 9 8 8 32 38 40 43 39 39 41 18 33 42 50 52 55 58 58 59 60 57 56 46 22 20 21 24 25 27 43 54 60 59 47 52 57 62 65
34 41 42 34 28 22 17 12 13 12 11 11 10 12 52 43 44 42 41 40 43 24 34 44 50 55 56 59 61 57 53 52 49 41 21 18 19 24 24 26 39 49 53 56 48 44 50 61 62
28 32 36 32 29 24 15 14 12 11 12 11 11 16 63 48 45 46 45 46 48 49 31 42 48 54 58 60 64 61 48 42 44 33 18 17 18 24 24 25 32 38 45 53 50 44 47 52 65
30 40 43 35 28 22 16 16 12 12 12 12 11 41 47 38 46 48 49 52 55 55 53 39 46 54 57 59 65 65 55 41 39 32 16 16 17 22 24 25 31 33 35 40 48 48 45 50 64
30 41 34 24 20 19 15 15 14 14 14 14 13 38 30 34 47 50 51 52 58 58 59 54 41 51 56 59 63 66 64 51 42 27 16 15 15 18 22 24 31 35 32 35 38 44 41 47 70
18 36 28 23 19 18 17 15 13 14 17 14 16 17 27 44 49 52 54 53 55 59 61 63 46 47 54 56 60 62 62 55 46 29 19 16 15 17 19 21 26 32 33 31 31 34 37 37 65
20 15 14 16 16 15 16 13 15 14 14 14 15 16 17 32 41 44 54 56 57 61 60 65 57 40 51 51 55 56 56 55 42 28 21 18 15 17 18 19 19 22 27 28 28 27 28 36 54
13 13 10 10 11 12 14 18 19 17 15 14 14 15 16 17 19 35 42 54 57 59 62 60 63 40 47 48 53 51 54 47 43 26 23 19 19 15 16 19 20 19 21 24 25 26 46 51 55
14 14 13 12 12 12 14 14 14 17 17 17 16 15 15 15 16 18 19 22 57 60 64 65 59 40 44 47 51 49 49 47 44 26 23 20 19 22 18 20 21 21 20 20 21 24 44 54 61
18 19 16 13 12 13 11 17 17 14 13 14 14 16 18 17 15 14 16 18 31 56 62 67 62 54 42 48 57 51 45 47 42 27 26 24 22 33 27 28 32 20 21 21 22 31 46 46 60
23 21 24 14 11 9 10 13 11 10 12 12 11 11 11 16 16 14 13 16 18 44 59 71 72 64 53 45 58 69 47 43 42 26 26 29 30 38 42 44 51 29 38 41 40 50 56 50 57
25 29 24 19 13 14 12 13 10 8 7 6 8 11 12 13 15 14 13 14 16 18 43 55 70 66 60 58 54 70 64 42 36 34 27 31 34 55 54 52 48 46 47 54 53 56 59 52 65
38 32 26 24 18 15 16 16 13 11 10 9 8 8 12 13 14 16 15 12 14 17 18 44 63 64 63 61 61 72 70 55 49 50 40 42 35 46 60 64 49 50 57 56 56 53 54 50 66
25 26 26 21 17 18 19 18 16 12 11 10 10 9 9 8 9 13 15 15 16 13 15 36 63 63 64 67 68 66 75 73 68 61 62 43 50 40 56 63 56 54 56 56 53 53 52 59 69
25 27 26 21 18 22 23 22 17 14 14 12 12 12 11 11 9 8 9 10 13 17 14 20 44 59 64 65 64 62 61 75 72 72 69 66 56 56 51 57 56 49 55 56 55 49 51 59 69
27 27 30 34 28 22 25 27 21 17 16 15 12 10 10 9 9 9 8 8 9 11 14 26 36 60 61 65 66 70 73 79 77 75 77 73 69 60 56 42 52 53 53 53 53 51 45 52 64
34 25 30 43 50 64 34 36 22 18 17 18 18 22 24 20 18 15 9 10 10 9 11 16 45 56 58 67 69 67 74 79 79 72 79 79 75 68 61 51 43 50 56 54 50 47 49 44 54
45 31 43 47 50 51 41 39 25 18 45 40 30 36 42 44 47 50 42 25 15 21 17 12 14 61 68 67 66 70 70 80 76 72 76 83 82 77 70 64 48 48 53 54 53 50 47 45 40
28 34 41 48 58 82 41 77 62 75 75 44 35 35 37 48 52 50 49 48 34 33 27 24 22 16 57 69 69 71 67 76 78 75 75 80 82 82 78 71 65 46 46 58 53 51 44 39 43
32 55 90 90 84 82 48 61 94 96 57 48 54 53 50 52 60 63 56 50 53 47 41 35 34 24 23 72 70 74 71 71 69 72 76 79 82 86 83 74 74 67 50 48 56 55 50 40 40
35 49 91 95 92 73 39 41 99 69 62 56 54 48 66 62 70 73 75 69 69 53 50 42 39 38 28 50 74 68 78 75 70 74 78 78 83 80 82 80 74 72 66 53 55 59 52 46 38
42 76 58 83 64 80 46 72 96 38 34 39 43 60 70 78 80 84 83 84 85 70 63 59 51 43 43 42 71 71 76 80 74 71 77 80 80 84 86 84 78 75 72 65 59 63 54 52 42
39 38 82 89 95 94 54 53 88 37 29 42 56 69 75 73 82 85 98 90 95 86 85 85 67 57 52 55 53 94 64 72 76 71 77 82 83 86 88 87 83 82 79 73 67 66 69 62 55
44 90 86 84 94 96 92 64 68 35 29 52 69 70 82 76 86 97 99 88 89 92 92 86 71 61 58 66 65 57 98 68 67 83 71 80 86 83 83 85 83 82 82 83 77 71 76 75 69
77 87 60 96 90 85 78 65 29 30 25 48 76 77 89 85 89 96 100 98 88 96 98 99 90 78 70 79 91 79 64 91 63 77 82 82 84 80 82 82 85 84 83 87 86 77 81 84 80
Wind_Speed
4 1 5 8 3 3 3 8 6 6 5 11 17 12 4 6 6 7 23 25 22 30 33 33 31 28 26 23 20 18 17 17 16 16 18 19 20 20 21 22 22 22 22 22 23 24 27 30 31
3 1 7 5 3 1 6 5 7 4 5 11 16 15 10 5 21 19 25 21 19 29 34 34 31 29 27 24 21 18 16 16 15 16 17 19 19 20 20 21 21 21 21 22 23 26 30 31 30
1 5 4 3 3 5 4 4 3 7 15 16 9 8 9 10 15 12 18 25 22 29 35 34 32 29 27 25 22 19 17 16 15 15 16 18 18 18 20 21 20 20 21 21 23 26 29 29 27
7 4 6 1 8 11 6 9 7 8 13 10 11 5 10 16 12 14 21 19 18 30 34 34 32 30 26 25 22 20 18 16 14 14 15 16 17 18 19 20 19 19 20 21 23 26 29 29 27
12 5 2 3 8 10 10 19 6 6 4 5 3 5 10 19 20 18 19 15 18 31 33 33 32 29 27 24 23 20 18 17 15 13 14 16 16 17 18 18 18 19 19 19 22 25 28 28 25
5 3 2 4 8 9 8 18 7 5 6 4 3 1 7 14 16 20 18 16 12 31 33 33 32 29 27 24 23 21 19 17 15 13 14 15 16 16 17 18 18 18 18 18 20 22 24 24 24
6 1 4 7 12 16 9 24 14 6 8 5 6 1 8 20 14 19 20 18 16 23 33 34 33 30 27 25 23 22 21 19 17 15 14 15 17 17 17 18 18 18 17 18 19 19 20 22 23
12 2 6 5 8 16 15 20 20 7 4 8 12 1 6 11 15 16 20 18 18 17 25 33 33 31 29 26 24 22 22 21 19 17 17 15 16 18 18 18 17 18 17 17 17 18 18 19 20
14 2 4 7 8 11 26 6 19 15 3 8 11 17 19 13 19 18 22 21 22 21 21 30 33 32 30 28 26 24 22 23 21 19 19 19 18 19 19 19 18 18 17 17 16 15 16 18 22
6 1 7 11 14 10 17 20 20 12 15 16 15 18 12 11 21 24 25 23 24 25 24 23 33 33 32 31 30 28 26 26 25 23 22 21 20 19 20 20 20 18 17 16 16 15 15 18 19
10 8 9 20 29 29 18 22 24 15 7 19 18 10 1 14 18 20 23 25 25 24 23 22 31 34 34 33 33 32 31 30 27 25 25 24 23 22 22 22 22 20 19 17 16 15 15 17 18
6 13 20 21 25 27 13 20 20 18 15 20 27 22 15 7 14 17 22 26 27 26 24 22 29 37 35 35 34 35 34 33 31 29 27 27 26 26 25 24 22 20 19 17 15 14 15 18 18
5 9 25 30 29 26 26 17 13 28 24 20 28 25 22 21 16 15 16 25 30 32 30 25 24 36 36 36 35 36 36 35 33 31 29 28 27 27 25 24 23 21 19 17 16 16 17 15 11
17 23 23 25 27 25 15 17 23 33 27 25 22 31 29 25 27 23 14 10 29 33 34 29 25 34 35 36 35 37 37 36 34 32 32 30 27 26 25 24 23 22 20 18 17 17 18 16 11
21 12 15 17 19 15 26 14 18 30 35 34 32 30 33 28 24 25 25 20 16 29 34 37 30 30 34 37 34 35 37 36 36 34 33 32 29 25 25 23 20 22 20 19 18 19 14 12 17
7 6 5 2 12 17 17 21 17 33 32 35 37 36 34 39 31 29 27 25 25 24 35 38 34 31 31 36 36 32 36 37 36 35 34 35 32 28 25 23 20 20 21 19 18 18 15 12 16
4 6 10 11 13 10 5 12 12 25 28 29 32 36 37 31 32 30 29 28 29 31 32 29 35 40 32 34 38 32 32 36 35 35 34 37 35 32 28 27 23 21 20 19 19 20 19 18 17
9 14 14 15 12 19 15 12 14 26 28 24 29 25 23 32 29 24 27 29 31 34 31 34 45 45 39 34 38 33 32 36 35 37 36 35 39 36 32 30 28 25 24 25 25 25 24 21 18
8 11 13 15 15 13 17 12 18 22 25 22 25 28 30 26 22 23 27 21 30 34 40 38 49 49 44 44 44 42 40 40 39 37 38 36 40 40 37 33 33 31 32 31 29 28 25 26 23
9 12 15 14 15 16 17 18 18 18 17 24 25 28 32 30 29 33 31 34 31 25 39 31 43 52 51 50 46 45 47 44 41 39 40 38 38 39 42 38 37 35 36 35 35 31 29 29 29
11 11 12 17 19 14 10 13 14 19 29 31 31 34 37 37 35 37 40 38 36 34 29 21 37 55 55 53 49 47 44 42 42 42 43 44 41 38 42 44 40 39 38 40 39 35 34 35 34
12 9 14 15 14 8 13 14 16 13 12 16 26 28 29 31 29 24 42 44 42 41 36 26 26 50 58 58 54 53 51 52 50 49 47 47 45 42 40 44 44 43 40 41 41 37 37 35 38
8 14 7 10 14 8 15 6 17 8 9 19 28 26 29 33 31 25 17 31 38 27 28 32 28 35 56 63 59 56 53 51 51 50 50 47 48 47 43 42 45 47 45 44 43 41 38 40 39
12 15 13 10 3 5 7 5 5 5 9 17 26 29 28 27 31 34 28 21 24 26 26 26 21 27 39 56 63 61 57 53 52 49 48 53 52 52 49 46 44 47 50 47 45 44 42 41 43
14 10 4 4 4 2 7 8 2 12 13 16 19 31 33 30 29 33 37 35 28 25 25 24 23 24 26 53 57 63 61 56 53 56 53 53 56 54 56 53 51 47 52 52 47 47 45 45 44
12 5 1 5 3 9 15 6 3 3 1 12 15 20 29 29 30 33 37 36 35 33 30 25 23 22 23 36 56 60 63 59 56 56 57 58 57 62 59 56 54 50 47 54 51 50 49 47 45
7 5 8 4 4 5 4 5 5 9 8 11 14 16 18 23 32 38 38 37 39 35 33 26 25 28 20 21 56 66 68 65 62 58 58 58 58 62 61 59 56 53 51 49 56 53 52 52 49
10 11 4 3 3 5 5 2 2 14 18 17 17 25 27 37 38 42 37 39 39 31 29 24 22 29 32 26 32 49 65 68 63 58 59 57 59 62 61 61 58 54 51 51 54 59 56 55 54
14 4 5 2 3 3 6 4 3 15 17 13 16 26 28 33 30 31 36 36 39 29 27 27 26 30 34 30 25 41 40 65 61 57 53 60 53 61 65 63 60 56 53 53 56 57 60 59 57
12 5 3 2 6 2 4 7 8 20 29 20 20 25 23 23 24 33 34 37 41 36 35 34 34 31 31 29 21 24 55 51 57 56 54 58 56 55 59 61 59 55 55 54 56 58 59 60 60
Wind_Direction
317 320 344 331 40 83 268 270 245 347 24 56 51 54 355 64 88 135 154 166 158 157 157 157 158 154 150 147 144 140 138 129 120 113 115 119 118 117 115 115 113 109 105 102 103 106 105 101 98
324 317 308 285 107 264 263 310 69 61 66 45 56 27 51 36 109 139 161 182 166 162 158 159 160 157 153 150 148 146 143 136 127 118 119 123 121 119 119 120 117 112 108 103 104 107 110 107 101
3 313 306 158 200 207 239 30 34 83 56 37 36 53 47 87 114 134 154 161 158 166 160 161 162 159 156 155 153 149 148 144 135 126 126 127 124 124 125 126 120 114 112 108 107 110 115 109 101
341 306 252 115 263 271 260 285 301 50 51 54 25 36 71 122 114 134 155 165 170 169 163 163 165 160 163 158 157 153 151 149 141 135 133 132 130 130 132 129 122 117 116 113 109 111 115 115 110
327 271 238 244 260 278 274 272 231 101 54 50 66 63 90 94 120 140 172 174 180 170 166 167 167 165 164 165 159 156 155 153 149 144 140 138 135 136 137 133 127 125 124 120 116 116 119 119 116
295 252 331 262 271 274 295 8 64 61 88 329 344 206 84 125 128 152 179 178 187 171 170 171 169 171 169 170 165 159 159 158 155 151 148 145 142 144 144 140 135 132 131 128 126 123 124 122 114
234 27 252 281 288 299 309 341 32 10 22 327 310 105 96 103 125 154 177 187 188 181 175 176 173 175 175 174 175 166 163 163 161 157 156 155 152 153 151 148 144 142 139 133 134 131 129 127 122
276 192 289 281 287 290 305 320 334 341 294 282 304 178 123 127 126 151 176 184 187 186 185 182 179 178 179 179 180 177 170 167 169 164 161 162 163 161 158 157 156 151 147 140 138 140 134 129 127
289 315 270 265 274 283 301 331 322 333 328 322 323 125 136 132 144 152 165 177 181 188 193 194 187 184 182 181 181 183 180 174 173 173 169 168 173 170 166 166 166 161 156 150 143 141 138 128 128
206 203 242 259 277 290 315 336 333 344 341 324 321 124 142 149 154 164 175 184 188 189 195 203 197 190 185 184 183 184 185 184 181 180 178 175 177 176 175 174 175 172 167 163 158 151 140 136 135
259 235 252 273 281 294 305 318 321 340 323 297 311 350 305 158 158 174 184 191 205 199 205 211 206 198 192 189 187 186 189 189 188 186 184 180 180 182 183 184 183 181 178 174 171 165 154 143 139
343 287 256 261 280 303 307 319 322 306 293 295 286 301 318 220 171 179 195 196 203 209 216 224 209 203 198 195 194 192 192 192 192 190 190 187 186 190 187 190 190 189 186 182 178 171 160 149 151
309 335 323 316 318 318 323 330 315 296 295 302 285 288 293 298 295 213 197 209 207 211 218 224 218 204 202 201 200 199 197 197 195 193 193 196 192 195 193 194 194 194 193 191 184 173 164 165 163
319 326 319 312 307 309 312 311 307 284 288 296 292 285 286 286 286 282 266 234 209 213 215 219 218 212 204 206 205 204 203 201 201 197 197 200 199 202 196 197 200 199 197 195 192 181 177 180 162
317 307 300 286 293 294 300 289 265 279 283 282 277 275 278 277 276 279 274 268 235 216 222 219 217 212 208 210 208 211 208 205 207 203 200 203 203 202 207 199 197 202 199 192 189 179 178 185 185
299 286 313 326 253 257 232 259 258 262 262 259 258 257 260 270 273 271 270 267 257 230 218 212 214 214 209 215 209 213 215 212 212 210 204 204 204 204 206 210 203 197 186 186 182 186 183 195 180
285 280 300 304 320 341 31 290 317 305 270 260 262 243 243 246 261 265 264 262 255 254 230 208 237 218 212 210 214 214 217 217 215 216 208 206 208 205 205 210 208 202 188 199 190 193 198 194 178
323 325 321 317 325 322 318 303 311 313 319 316 318 320 261 237 251 267 264 260 255 248 258 220 214 218 213 209 212 207 217 218 217 218 216 209 209 210 207 211 207 200 200 205 204 207 205 193 181
318 312 308 307 313 313 309 307 309 309 306 309 310 311 308 305 299 279 274 284 270 248 251 228 214 215 213 205 204 203 210 212 214 217 221 217 214 214 210 208 208 202 201 209 212 215 206 187 185
318 312 304 308 316 327 323 314 303 304 304 309 305 305 304 305 299 291 282 282 279 278 249 247 229 220 216 210 208 214 211 210 215 214 221 224 219 216 216 211 211 207 205 209 216 214 206 197 192
321 307 321 328 332 312 309 306 311 317 316 311 308 291 286 283 287 289 285 285 289 288 297 269 227 221 218 217 209 208 206 206 211 216 218 222 225 220 222 219 214 213 209 212 217 216 210 201 196
302 325 313 337 343 309 324 299 294 294 300 332 334 339 342 311 304 297 280 286 288 285 286 291 257 223 221 216 211 207 205 203 207 214 216 221 225 225 222 225 217 215 216 217 220 218 215 206 199
312 338 338 300 289 309 297 295 279 312 9 355 354 11 15 5 3 2 321 295 284 305 298 284 288 238 218 216 217 213 210 207 208 212 216 221 223 228 226 225 223 218 218 222 221 221 218 216 208
327 346 319 293 240 259 324 1 320 26 356 350 354 350 8 15 4 354 346 330 290 293 293 283 285 272 237 221 217 216 214 208 207 208 217 218 225 224 226 227 226 222 221 222 224 226 225 222 220
359 341 336 333 359 239 11 304 35 8 12 354 358 345 2 2 3 359 346 340 331 329 314 301 298 276 277 228 222 218 220 214 215 210 212 216 221 224 224 226 227 224 224 224 224 227 227 228 226
322 332 188 297 310 297 307 264 72 232 124 35 347 357 355 350 356 353 348 342 334 330 332 328 305 303 264 250 229 227 218 218 217 214 212 218 218 225 227 226 229 227 226 226 225 228 231 231 231
314 7 299 262 277 275 239 77 97 314 21 10 6 14 356 360 354 354 348 347 344 335 340 342 325 312 297 289 234 229 222 218 218 215 213 217 221 222 226 228 230 231 229 228 227 227 230 234 235
337 313 4 352 331 304 301 303 182 18 8 5 12 7 4 1 357 355 352 351 350 346 360 359 324 314 305 296 268 244 231 226 223 219 214 217 220 221 223 227 230 232 233 231 227 229 232 233 237
321 35 346 305 1 309 344 281 236 2 354 360 17 356 357 1 355 355 352 356 356 350 358 340 321 311 307 322 288 258 256 229 226 220 222 216 221 223 226 228 230 232 235 235 228 229 232 234 236
60 7 5 91 314 268 250 261 276 341 336 349 7 355 355 355 351 353 353 4 6 2 0 350 338 324 318 345 326 247 257 243 231 227 223 218 219 228 229 229 230 234 236 234 232 230 231 234 236